Regional Weather Roundup
Issued by NWS

Home | Current Version | Previous Version | Text Only | Print | Product List | Glossary Off
Versions: 1 2 3 4 5 6 7 8 9 10 11 12 13 14 15 16 17 18 19 20 21 22 23 24 25 26 27 28 29 30 31 32 33 34 35 36 37 38 39 40 41 42 43 44 45 46 47 48 49 50

000
ASUS45 KABQ 181710
RWRNM
NEW MEXICO REGIONAL WEATHER ROUNDUP
NATIONAL WEATHER SERVICE ALBUQUERQUE NM
1000 AM MST SAT NOV 18 2017

NOTE: "FAIR" MEANS FEW OR NO CLOUDS BELOW 12,000 FEET AGL WITH NO
       SIGNIFICANT WEATHER OR OBSTRUCTIONS TO VISION.

      THIS PRODUCT IS RELEASED AS TWO VERSIONS.  ONE VERSION NEAR
      THE TOP OF THE HOUR CONTAINING PRELIMINARY DATA FROM ALBUQUERQUE
      AND OTHER STATIONS.  A FINAL VERSION WITH ADDITIONAL DATA IS
      ISSUED ABOUT 10 MINUTES AFTER THE HOUR.

NMZ501-503-504-510>518-181800-
NORTHWEST PLATEAU/NORTHCENTRAL MOUNTAINS

CITY           SKY/WX    TMP DP  RH WIND       PRES   REMARKS
FARMINGTON     FAIR      36  12  37 VRB3      30.37R
LOS ALAMOS     FAIR      36  11  36 NE5       30.33S WCI  32
SANTA FE       FAIR      41  14  33 N17       30.32R
TAOS           FAIR      37   1  22 N16       30.35R WCI  28
ANGEL FIRE     FAIR      31   5  33 CALM      30.31R

$$
NMZ402-403-502-505>509-181800-
WESTCENTRAL MOUNTAINS/SOUTHWEST MOUNTAINS

CITY           SKY/WX    TMP DP  RH WIND       PRES   REMARKS
GALLUP         FAIR      36  13  38 VRB3      30.38R
GRANTS         FAIR      37   6  28 N12G20    30.40R WCI  29
SILVER CITY    FAIR      57  25  28 CALM      30.27R

$$
NMZ407-409-411-412-181800-
SOUTHERN DESERTS

CITY           SKY/WX    TMP DP  RH WIND       PRES   REMARKS
DEMING         FAIR      62  31  31 NE12      30.24S
LAS CRUCES     FAIR      58  29  33 N14G20    30.25R
HOLLOMAN AFB   FAIR      58  24  27 N21       30.28R
ALAMOGORDO     FAIR      57  25  28 N22       30.25R
T OR C         FAIR      53  23  31 N14       30.27F

$$
NMZ519>523-181800-
CENTRAL VALLEYS/CENTRAL HIGHLANDS

CITY           SKY/WX    TMP DP  RH WIND       PRES   REMARKS
ALBUQUERQUE    FAIR      41   6  23 NW13      30.36S
DOUBLE EAGLE   MOSUNNY   39   5  24 NW18      30.35  WCI  30
MORIARTY ARPT  FAIR      44  14  29 N16G22    30.33R
CLINES CORNERS FAIR      40  14  34 NW9       30.31  WCI  34
BELEN          FAIR      44   7  21 NW12      30.36S
SOCORRO        FAIR      46  10  22 N22       30.33R

$$
NMZ524>526-539-540-181800-
SOUTHCENTRAL MOUNTAINS

CITY           SKY/WX    TMP DP  RH WIND       PRES   REMARKS
RUIDOSO        FAIR      45  12  26 N14G25    30.32R

$$
NMZ527>531-181800-
NORTHEAST HIGHLANDS/NORTHEAST PLAINS

CITY           SKY/WX    TMP DP  RH WIND       PRES   REMARKS
LAS VEGAS      FAIR      37  19  48 CALM      30.29R
RATON          FAIR      40   9  28 NE8       30.25R WCI  34
CLAYTON        FAIR      41  16  36 N24       30.27R

$$
NMZ532>537-181800-
EASTCENTRAL PLAINS

CITY           SKY/WX    TMP DP  RH WIND       PRES   REMARKS
SANTA ROSA     FAIR      47  20  34 N13G21    30.30R
TUCUMCARI      FAIR      50  17  27 N26G35    30.29R
CANNON AFB     FAIR      48  18  30 NE24G35   30.31R
CLOVIS AIRPORT FAIR      48  19  31 N25G36    30.31R

$$
NMZ028-029-538-181800-
SOUTHEAST PLAINS

CITY           SKY/WX    TMP DP  RH WIND       PRES   REMARKS
ROSWELL        FAIR      54  32  43 N18G25    30.29R
ARTESIA        FAIR      55  32  41 NE21G28   30.30R
CARLSBAD       FAIR      59  20  22 N25G33    30.26R
HOBBS          SUNNY     54  28  37 N26G33    30.27R


$$




USA.gov is the U.S. government's official web portal to all federal, state and local government web resources and services.